<?xml version="1.0" encoding="UTF-8"?>
<gpx
version="1.1"
creator="Kashmir3D 9.350 - http://www.kashmir3d.com"
xmlns:xsi="http://www.w3.org/2001/XMLSchema-instance"
xmlns="http://www.topografix.com/GPX/1/1"
xmlns:kashmir3d="http://www.kashmir3d.com/namespace/kashmir3d"
xsi:schemaLocation="http://www.topografix.com/GPX/1/1 http://www.topografix.com/GPX/1/1/gpx.xsd
	http://www.kashmir3d.com/namespace/kashmir3d http://www.kashmir3d.com/namespace/kashmir3d.xsd">
<trk>
 <name>GOISAN.KML(五井山)</name>
 <number>1</number>
 <extensions>
 <kashmir3d:line_color>0000ff</kashmir3d:line_color>
 <kashmir3d:line_size>3</kashmir3d:line_size>
 <kashmir3d:line_style>1</kashmir3d:line_style>
 <kashmir3d:icon>901001</kashmir3d:icon>
 </extensions>
<trkseg>
<trkpt lat="34.845861" lon="137.251798">
 <ele>294.4</ele>
 <time>2020-03-24T15:46:07Z</time>
</trkpt>
<trkpt lat="34.846058" lon="137.251884">
 <ele>303.6</ele>
 <time>2020-03-24T15:46:07Z</time>
</trkpt>
<trkpt lat="34.846221" lon="137.251938">
 <ele>313.4</ele>
 <time>2020-03-24T15:46:07Z</time>
</trkpt>
<trkpt lat="34.846496" lon="137.251959">
 <ele>334.5</ele>
 <time>2020-03-24T15:46:07Z</time>
</trkpt>
<trkpt lat="34.846668" lon="137.252002">
 <ele>348.3</ele>
 <time>2020-03-24T15:46:07Z</time>
</trkpt>
<trkpt lat="34.846865" lon="137.252131">
 <ele>370.7</ele>
 <time>2020-03-24T15:46:07Z</time>
</trkpt>
<trkpt lat="34.847157" lon="137.252142">
 <ele>395.3</ele>
 <time>2020-03-24T15:46:08Z</time>
</trkpt>
<trkpt lat="34.847200" lon="137.252238">
 <ele>392.2</ele>
 <time>2020-03-24T15:46:08Z</time>
</trkpt>
<trkpt lat="34.847191" lon="137.252635">
 <ele>392.4</ele>
 <time>2020-03-24T15:46:08Z</time>
</trkpt>
<trkpt lat="34.847191" lon="137.253032">
 <ele>395.2</ele>
 <time>2020-03-24T15:46:08Z</time>
</trkpt>
<trkpt lat="34.847157" lon="137.253547">
 <ele>394.6</ele>
 <time>2020-03-24T15:46:08Z</time>
</trkpt>
<trkpt lat="34.847131" lon="137.253794">
 <ele>397.2</ele>
 <time>2020-03-24T15:46:08Z</time>
</trkpt>
<trkpt lat="34.847131" lon="137.254202">
 <ele>401.1</ele>
 <time>2020-03-24T15:46:08Z</time>
</trkpt>
<trkpt lat="34.847140" lon="137.254524">
 <ele>405.3</ele>
 <time>2020-03-24T15:46:08Z</time>
</trkpt>
<trkpt lat="34.847131" lon="137.254738">
 <ele>412.1</ele>
 <time>2020-03-24T15:46:08Z</time>
</trkpt>
<trkpt lat="34.847106" lon="137.254963">
 <ele>420.5</ele>
 <time>2020-03-24T15:46:09Z</time>
</trkpt>
<trkpt lat="34.847088" lon="137.255242">
 <ele>428.4</ele>
 <time>2020-03-24T15:46:09Z</time>
</trkpt>
<trkpt lat="34.847131" lon="137.255586">
 <ele>431.7</ele>
 <time>2020-03-24T15:46:09Z</time>
</trkpt>
<trkpt lat="34.847148" lon="137.255843">
 <ele>435.1</ele>
 <time>2020-03-24T15:46:09Z</time>
</trkpt>
<trkpt lat="34.847157" lon="137.255983">
 <ele>433.4</ele>
 <time>2020-03-24T15:46:09Z</time>
</trkpt>
<trkpt lat="34.847106" lon="137.256144">
 <ele>432.9</ele>
 <time>2020-03-24T15:46:09Z</time>
</trkpt>
<trkpt lat="34.847045" lon="137.256465">
 <ele>430.1</ele>
 <time>2020-03-24T15:46:09Z</time>
</trkpt>
<trkpt lat="34.846994" lon="137.256605">
 <ele>428.5</ele>
 <time>2020-03-24T15:46:09Z</time>
</trkpt>
<trkpt lat="34.846942" lon="137.256852">
 <ele>435.8</ele>
 <time>2020-03-24T15:46:09Z</time>
</trkpt>
<trkpt lat="34.846891" lon="137.257120">
 <ele>443.5</ele>
 <time>2020-03-24T15:46:10Z</time>
</trkpt>
<trkpt lat="34.846925" lon="137.257517">
 <ele>450.6</ele>
 <time>2020-03-24T15:46:10Z</time>
</trkpt>
<trkpt lat="34.846960" lon="137.257635">
 <ele>451.5</ele>
 <time>2020-03-24T15:46:10Z</time>
</trkpt>
<trkpt lat="34.847020" lon="137.257774">
 <ele>450.4</ele>
 <time>2020-03-24T15:46:10Z</time>
</trkpt>
<trkpt lat="34.846977" lon="137.257849">
 <ele>450.8</ele>
 <time>2020-03-24T15:46:10Z</time>
</trkpt>
<trkpt lat="34.846977" lon="137.257914">
 <ele>451.2</ele>
 <time>2020-03-24T15:46:10Z</time>
</trkpt>
<trkpt lat="34.847028" lon="137.258010">
 <ele>451.6</ele>
 <time>2020-03-24T15:46:10Z</time>
</trkpt>
<trkpt lat="34.847123" lon="137.258128">
 <ele>452.4</ele>
 <time>2020-03-24T15:46:10Z</time>
</trkpt>
<trkpt lat="34.847183" lon="137.258225">
 <ele>452.4</ele>
 <time>2020-03-24T15:46:10Z</time>
</trkpt>
<trkpt lat="34.847243" lon="137.258332">
 <ele>452.6</ele>
 <time>2020-03-24T15:46:10Z</time>
</trkpt>
<trkpt lat="34.847277" lon="137.258461">
 <ele>452.7</ele>
 <time>2020-03-24T15:46:11Z</time>
</trkpt>
<trkpt lat="34.847303" lon="137.258600">
 <ele>452.9</ele>
 <time>2020-03-24T15:46:11Z</time>
</trkpt>
<trkpt lat="34.847303" lon="137.258697">
 <ele>452.8</ele>
 <time>2020-03-24T15:46:11Z</time>
</trkpt>
<trkpt lat="34.847234" lon="137.258729">
 <ele>452.8</ele>
 <time>2020-03-24T15:46:11Z</time>
</trkpt>
<trkpt lat="34.847088" lon="137.258718">
 <ele>452.9</ele>
 <time>2020-03-24T15:46:11Z</time>
</trkpt>
<trkpt lat="34.847011" lon="137.258718">
 <ele>451.4</ele>
 <time>2020-03-24T15:46:11Z</time>
</trkpt>
<trkpt lat="34.846977" lon="137.258815">
 <ele>449.7</ele>
 <time>2020-03-24T15:46:11Z</time>
</trkpt>
<trkpt lat="34.846977" lon="137.258922">
 <ele>451.8</ele>
 <time>2020-03-24T15:46:11Z</time>
</trkpt>
<trkpt lat="34.846977" lon="137.259040">
 <ele>453.2</ele>
 <time>2020-03-24T15:46:11Z</time>
</trkpt>
<trkpt lat="34.847072" lon="137.259075">
 <ele>454.2</ele>
 <time>2020-03-24T15:46:12Z</time>
</trkpt>
<trkpt lat="34.846977" lon="137.259040">
 <ele>453.2</ele>
 <time>2020-03-24T15:46:12Z</time>
</trkpt>
<trkpt lat="34.846977" lon="137.258922">
 <ele>451.8</ele>
 <time>2020-03-24T15:46:12Z</time>
</trkpt>
<trkpt lat="34.846977" lon="137.258815">
 <ele>449.7</ele>
 <time>2020-03-24T15:46:12Z</time>
</trkpt>
<trkpt lat="34.847011" lon="137.258718">
 <ele>451.4</ele>
 <time>2020-03-24T15:46:12Z</time>
</trkpt>
<trkpt lat="34.847088" lon="137.258718">
 <ele>452.9</ele>
 <time>2020-03-24T15:46:12Z</time>
</trkpt>
<trkpt lat="34.847234" lon="137.258729">
 <ele>452.8</ele>
 <time>2020-03-24T15:46:12Z</time>
</trkpt>
<trkpt lat="34.847303" lon="137.258697">
 <ele>452.8</ele>
 <time>2020-03-24T15:46:12Z</time>
</trkpt>
<trkpt lat="34.847303" lon="137.258600">
 <ele>452.9</ele>
 <time>2020-03-24T15:46:12Z</time>
</trkpt>
<trkpt lat="34.847277" lon="137.258461">
 <ele>452.7</ele>
 <time>2020-03-24T15:46:12Z</time>
</trkpt>
<trkpt lat="34.847243" lon="137.258332">
 <ele>452.6</ele>
 <time>2020-03-24T15:46:13Z</time>
</trkpt>
<trkpt lat="34.847183" lon="137.258225">
 <ele>452.4</ele>
 <time>2020-03-24T15:46:13Z</time>
</trkpt>
<trkpt lat="34.847123" lon="137.258128">
 <ele>452.4</ele>
 <time>2020-03-24T15:46:13Z</time>
</trkpt>
<trkpt lat="34.847028" lon="137.258010">
 <ele>451.6</ele>
 <time>2020-03-24T15:46:13Z</time>
</trkpt>
<trkpt lat="34.846977" lon="137.257914">
 <ele>451.2</ele>
 <time>2020-03-24T15:46:13Z</time>
</trkpt>
<trkpt lat="34.846977" lon="137.257849">
 <ele>450.8</ele>
 <time>2020-03-24T15:46:13Z</time>
</trkpt>
<trkpt lat="34.847020" lon="137.257774">
 <ele>450.4</ele>
 <time>2020-03-24T15:46:13Z</time>
</trkpt>
<trkpt lat="34.846960" lon="137.257635">
 <ele>451.5</ele>
 <time>2020-03-24T15:46:13Z</time>
</trkpt>
<trkpt lat="34.846925" lon="137.257517">
 <ele>450.6</ele>
 <time>2020-03-24T15:46:13Z</time>
</trkpt>
<trkpt lat="34.846891" lon="137.257120">
 <ele>443.5</ele>
 <time>2020-03-24T15:46:14Z</time>
</trkpt>
<trkpt lat="34.846942" lon="137.256852">
 <ele>435.8</ele>
 <time>2020-03-24T15:46:14Z</time>
</trkpt>
<trkpt lat="34.846994" lon="137.256605">
 <ele>428.5</ele>
 <time>2020-03-24T15:46:14Z</time>
</trkpt>
<trkpt lat="34.847045" lon="137.256465">
 <ele>430.1</ele>
 <time>2020-03-24T15:46:14Z</time>
</trkpt>
<trkpt lat="34.847106" lon="137.256144">
 <ele>432.9</ele>
 <time>2020-03-24T15:46:14Z</time>
</trkpt>
<trkpt lat="34.847157" lon="137.255983">
 <ele>433.4</ele>
 <time>2020-03-24T15:46:14Z</time>
</trkpt>
<trkpt lat="34.847148" lon="137.255843">
 <ele>435.1</ele>
 <time>2020-03-24T15:46:14Z</time>
</trkpt>
<trkpt lat="34.847131" lon="137.255586">
 <ele>431.7</ele>
 <time>2020-03-24T15:46:14Z</time>
</trkpt>
<trkpt lat="34.847088" lon="137.255242">
 <ele>428.4</ele>
 <time>2020-03-24T15:46:14Z</time>
</trkpt>
<trkpt lat="34.847106" lon="137.254963">
 <ele>420.5</ele>
 <time>2020-03-24T15:46:14Z</time>
</trkpt>
<trkpt lat="34.847131" lon="137.254738">
 <ele>412.1</ele>
 <time>2020-03-24T15:46:15Z</time>
</trkpt>
<trkpt lat="34.847140" lon="137.254524">
 <ele>405.3</ele>
 <time>2020-03-24T15:46:15Z</time>
</trkpt>
<trkpt lat="34.847131" lon="137.254202">
 <ele>401.1</ele>
 <time>2020-03-24T15:46:15Z</time>
</trkpt>
<trkpt lat="34.847131" lon="137.253794">
 <ele>397.2</ele>
 <time>2020-03-24T15:46:15Z</time>
</trkpt>
<trkpt lat="34.847157" lon="137.253547">
 <ele>394.6</ele>
 <time>2020-03-24T15:46:15Z</time>
</trkpt>
<trkpt lat="34.847191" lon="137.253032">
 <ele>395.2</ele>
 <time>2020-03-24T15:46:15Z</time>
</trkpt>
<trkpt lat="34.847191" lon="137.252635">
 <ele>392.4</ele>
 <time>2020-03-24T15:46:15Z</time>
</trkpt>
<trkpt lat="34.847200" lon="137.252238">
 <ele>392.2</ele>
 <time>2020-03-24T15:46:15Z</time>
</trkpt>
<trkpt lat="34.847157" lon="137.252142">
 <ele>395.3</ele>
 <time>2020-03-24T15:46:15Z</time>
</trkpt>
<trkpt lat="34.846865" lon="137.252131">
 <ele>370.7</ele>
 <time>2020-03-24T15:46:15Z</time>
</trkpt>
<trkpt lat="34.846668" lon="137.252002">
 <ele>348.3</ele>
 <time>2020-03-24T15:46:16Z</time>
</trkpt>
<trkpt lat="34.846496" lon="137.251959">
 <ele>334.5</ele>
 <time>2020-03-24T15:46:16Z</time>
</trkpt>
<trkpt lat="34.846221" lon="137.251938">
 <ele>313.4</ele>
 <time>2020-03-24T15:46:16Z</time>
</trkpt>
<trkpt lat="34.846058" lon="137.251884">
 <ele>303.6</ele>
 <time>2020-03-24T15:46:16Z</time>
</trkpt>
<trkpt lat="34.845861" lon="137.251798">
 <ele>294.4</ele>
 <time>2020-03-24T15:46:16Z</time>
</trkpt>
</trkseg>
</trk>
</gpx>

